Weather History for Vicksburg, MS

Change the Weather History Date:

Sunday, February 17, 2013

  Actual Average Record
Temperature  
Mean Temperature 47 °F 50 °F  
Max Temperature 63 °F 61 °F 80 °F (2000)
Min Temperature 30 °F 40 °F 23 °F (1958)
Degree Days  
Heating Degree Days 18 15  
Month to date heating degree days 235 284  
Since 1 July heating degree days 1622 1828  
Cooling Degree Days 0 0  
Month to date cooling degree days 0 0  
Year to date cooling degree days 18 3  
Moisture  
Dew Point 30 °F    
Average Humidity 56    
Maximum Humidity 78    
Minimum Humidity 33    
Precipitation  
Precipitation 0.00 in 0.21 in 1.95 in (2001)
Month to date precipitation 5.73 3.23  
Year to date precipitation 19.01 8.30  
Sea Level Pressure  
Sea Level Pressure 30.26 in    
Wind  
Wind Speed 8 mph (South)    
Max Wind Speed 15 mph    
Max Gust Speed 21 mph    
Visibility 10 miles    
Events      
T = Trace of Precipitation, MM = Missing Value Source: NWS Daily Summary

Daily Weather History Graph

Daily Weather History Graph

Search for Another Location

Airport:

Trip Planner

Search our weather history database for the weather conditions in past years. The results will help you decide how hot, cold, wet, or windy it might be!

Date:

Astronomy

Feb. 17, 2013 Rise Set
Actual Time 6:44 AM CST 5:52 PM CST
Civil Twilight 6:19 AM CST 6:17 PM CST
Nautical Twilight 5:50 AM CST 6:45 PM CST
Astronomical Twilight 5:22 AM CST 7:14 PM CST
Moon 11:04 AM CST (2/17) 12:21 AM CST (2/17)
Length of Visible Light 11h 57m
Length of Day
11h 07m
Waxing Crescent, 49% of the Moon is Illuminated
Feb 17
Waxing Crescent
Feb 17
First Quarter
Feb 25
Full
Mar 4
Last Quarter
Mar 11
New

Hourly Weather History & Observations

Time (CST) Temp. Windchill Dew Point Humidity Pressure Visibility Wind Dir Wind Speed Gust Speed Precip Events Conditions
12:53 AM 33.1 °F 30.0 °F 26.1 °F 75% 30.34 in 10.0 mi SE 3.5 mph - N/A   Clear
1:53 AM 32.0 °F 26.4 °F 27.0 °F 82% 30.32 in 10.0 mi East 5.8 mph - N/A   Clear
2:53 AM 30.9 °F 25.2 °F 25.0 °F 79% 30.32 in 10.0 mi SSE 5.8 mph - N/A   Clear
3:53 AM 33.1 °F 26.9 °F 24.1 °F 70% 30.31 in 10.0 mi SSE 6.9 mph - N/A   Clear
4:53 AM 32.0 °F 27.5 °F 25.0 °F 75% 30.32 in 10.0 mi SE 4.6 mph - N/A   Clear
5:53 AM 30.9 °F 26.2 °F 24.1 °F 76% 30.32 in 10.0 mi SSE 4.6 mph - N/A   Mostly Cloudy
6:53 AM 33.1 °F 26.9 °F 24.1 °F 70% 30.33 in 10.0 mi SSE 6.9 mph - N/A   Overcast
7:53 AM 36.0 °F 29.0 °F 24.1 °F 62% 30.34 in 10.0 mi SSE 9.2 mph - N/A   Clear
8:53 AM 41.0 °F 35.8 °F 24.1 °F 51% 30.35 in 10.0 mi SSE 8.1 mph - N/A   Clear
9:53 AM 46.0 °F 41.4 °F 26.1 °F 46% 30.35 in 10.0 mi South 9.2 mph - N/A   Clear
10:53 AM 51.1 °F - 26.1 °F 38% 30.33 in 10.0 mi South 10.4 mph - N/A   Clear
11:53 AM 55.0 °F - 28.9 °F 37% 30.30 in 10.0 mi South 11.5 mph - N/A   Clear
12:53 PM 59.0 °F - 30.9 °F 35% 30.25 in 10.0 mi South 11.5 mph - N/A   Clear
1:53 PM 61.0 °F - 32.0 °F 34% 30.22 in 10.0 mi SSW 11.5 mph 19.6 mph N/A   Clear
2:53 PM 62.1 °F - 34.0 °F 35% 30.20 in 10.0 mi SSW 11.5 mph - N/A   Clear
3:53 PM 63.0 °F - 36.0 °F 37% 30.18 in 10.0 mi SSW 9.2 mph - N/A   Clear
4:53 PM 61.0 °F - 36.0 °F 39% 30.17 in 10.0 mi SW 11.5 mph - N/A   Clear
5:53 PM 57.0 °F - 37.0 °F 47% 30.17 in 10.0 mi SSW 6.9 mph - N/A   Clear
6:53 PM 53.1 °F - 37.0 °F 55% 30.18 in 10.0 mi South 4.6 mph - N/A   Clear
7:53 PM 50.0 °F - 37.0 °F 61% 30.19 in 10.0 mi SSE 5.8 mph - N/A   Clear
8:53 PM 51.1 °F - 37.0 °F 59% 30.19 in 10.0 mi South 9.2 mph - N/A   Clear
9:53 PM 51.1 °F - 37.0 °F 59% 30.20 in 10.0 mi SSE 10.4 mph - N/A   Clear
11:53 PM 48.0 °F - 37.0 °F 66% 30.20 in 10.0 mi South 9.2 mph - N/A   Clear